Home   Weather   Ibiza   Past weeks

Flag for Spain Past Weather in Ibiza, Ibiza, Spain — Yesterday and Last 2 Weeks

72 °F

Passing clouds.

Feels Like: 75 °F
Forecast: 59 / 74 °F
Wind: 6 mph from East

Location: Ibiza / Es Codola

Current Time: Oct 28, 2016 at 6:18:09 PM

Latest Report: Oct 28, 2016 at 5:30 PM

Visibility: N/A

Pressure: 30.39 "Hg

Humidity: 65%

Dew Point: 59 °F

Location of IbizaLocation

Past Weather in Ibiza — Graph


Ibiza Temperature Yesterday

Maximum temperature yesterday: 73 °F (at 11:30 AM)
Minimum temperature yesterday: 64 °F (at 10:00 PM)
Average temperature yesterday: 69 °F

High & Low Weather Summary for the Past Weeks

High79 °F (Oct 25, 1:00 PM)100% (Oct 17, 9:00 AM)30.45 "Hg (Oct 17, 9:00 AM)
Low57 °F (Oct 28, 8:30 AM)50% (Oct 14, 2:30 PM)29.56 "Hg (Oct 13, 6:30 PM)
Average69 °F82%30.01 "Hg
* Reported Oct 13 5:00 PM — Oct 28 5:00 PM, Ibiza, Weather by CustomWeather, © 2016

Note: Actual official high and low records may vary slightly from our data, if they occured in-between our weather recording intervals... More about our weather records


Ibiza Weather History for the Previous 24 Hours

Scroll right to see more
Time TempWeatherWind HumidityBarometerVisibility
5:00 PM
Fri, Oct 28
72 °FSunny.8 mph65%30.42 "Hg10 mi
4:30 PM72 °FPassing clouds.9 mph65%30.42 "HgN/A
4:00 PM72 °FPassing clouds.10 mph65%30.42 "HgN/A
3:30 PM72 °FPassing clouds.9 mph65%30.42 "HgN/A
3:00 PM72 °FPassing clouds.9 mph61%30.42 "HgN/A
2:30 PM72 °FPassing clouds.9 mph65%30.42 "HgN/A
2:00 PM72 °FPassing clouds.9 mph65%30.42 "HgN/A
1:30 PM72 °FPassing clouds.9 mph65%30.45 "HgN/A
1:00 PM72 °FPassing clouds.8 mph61%30.45 "HgN/A
12:30 PM70 °FPassing clouds.8 mph64%30.45 "HgN/A
12:00 PM70 °FPassing clouds.9 mph64%30.45 "HgN/A
11:30 AM68 °FPassing clouds.8 mph69%30.45 "HgN/A
11:00 AM68 °FPassing clouds.10 mph73%30.45 "HgN/A
10:30 AM68 °FPassing clouds.8 mph73%30.42 "HgN/A
10:00 AM66 °FPassing clouds.8 mph78%30.42 "HgN/A
9:30 AM63 °FPassing clouds.No wind88%30.42 "HgN/A
9:00 AM59 °FPassing clouds.5 mph88%30.39 "HgN/A
8:30 AM57 °FPassing clouds.No wind94%30.39 "HgN/A
8:00 AM59 °FPassing clouds.1 mph94%30.39 "HgN/A
7:30 AM59 °FPassing clouds.2 mph94%30.36 "HgN/A
7:00 AM59 °FPassing clouds.1 mph94%30.36 "HgN/A
6:30 AM61 °FPassing clouds.7 mph88%30.36 "HgN/A
6:00 AM61 °FPassing clouds.1 mph94%30.36 "HgN/A
5:30 AM61 °FPassing clouds.5 mph94%30.36 "HgN/A
5:00 AM61 °FPassing clouds.3 mph94%30.36 "HgN/A
4:30 AM61 °FPassing clouds.6 mph94%30.36 "HgN/A
4:00 AM61 °FPassing clouds.7 mph94%30.36 "HgN/A
3:30 AM61 °FPassing clouds.5 mph88%30.36 "HgN/A
3:00 AM61 °FPassing clouds.3 mph94%30.36 "HgN/A
2:30 AM63 °FPassing clouds.2 mph88%30.36 "HgN/A
2:00 AM63 °FPassing clouds.2 mph88%30.36 "HgN/A
1:30 AM63 °FPassing clouds.1 mph88%30.39 "HgN/A
1:00 AM63 °FPassing clouds.2 mph94%30.36 "HgN/A
12:30 AM63 °FPassing clouds.3 mph94%30.36 "HgN/A
12:00 AM64 °FPassing clouds.2 mph88%30.36 "HgN/A
11:30 PM
Thu, Oct 27
64 °FPassing clouds.No wind88%30.36 "HgN/A
11:00 PM64 °FPassing clouds.5 mph88%30.36 "HgN/A
10:30 PM64 °FPassing clouds.2 mph88%30.36 "HgN/A
10:00 PM64 °FPassing clouds.2 mph88%30.36 "HgN/A
9:30 PM66 °FPassing clouds.6 mph83%30.33 "HgN/A
9:00 PM66 °FPassing clouds.3 mph83%30.33 "HgN/A
8:30 PM68 °FPassing clouds.3 mph83%30.33 "HgN/A
8:00 PM68 °FPassing clouds.3 mph88%30.33 "HgN/A
7:30 PM70 °FPassing clouds.3 mph83%30.33 "HgN/A
7:00 PM72 °FPassing clouds.7 mph73%30.30 "HgN/A
6:30 PM72 °FScattered clouds.6 mph73%30.30 "HgN/A
6:00 PM72 °FScattered clouds.5 mph78%30.30 "HgN/A
Weather by CustomWeather, © 2016

See weather overviewHow to use our weather pages